Theta_e
328 327 329 328 326 327 327 325 323 321 323 328 329 329 329 329 329 329 329 328 327 327 325 323 325 327 328 329 329 329 327 326 325 324 321 316 313 311 310 308 308 309 310 311 312 314 315 316 317 317 318 318 318 319 319 319 320 320 320 321 321 321 320 319 317 315 314 314 315 316 316 315 315 315 316 316 317 318 320 320 321 321 319 318 316
329 328 328 327 326 325 325 326 325 323 322 324 328 330 329 329 329 329 330 329 328 328 326 324 326 329 329 329 329 329 328 327 326 325 321 316 312 311 311 310 310 311 313 315 317 318 318 319 320 320 320 320 320 319 319 320 320 320 321 321 321 321 321 319 317 316 317 318 319 320 320 320 319 318 318 317 316 317 318 319 320 321 321 321 320
330 330 328 327 326 325 325 325 326 325 323 321 323 327 329 329 329 329 330 330 329 328 327 326 327 330 330 330 330 330 329 327 326 325 321 316 313 313 313 312 313 315 316 318 320 321 321 322 322 321 321 321 321 322 322 322 322 321 321 321 322 322 321 320 319 319 320 321 322 323 323 323 323 322 321 320 318 317 317 318 319 320 321 321 321
329 329 329 326 326 325 323 324 326 326 325 323 320 321 325 328 329 330 330 330 330 329 327 327 328 330 330 330 330 330 329 328 327 325 321 315 314 319 320 318 317 317 320 322 323 324 324 324 324 324 324 324 325 325 325 324 323 322 322 322 322 321 322 321 321 322 322 323 323 323 324 323 323 323 323 323 321 319 317 318 319 320 321 321 321
329 330 329 326 326 326 321 323 327 326 326 326 322 319 321 325 329 329 330 330 330 329 327 327 328 329 330 330 330 330 329 328 327 325 319 314 314 320 325 324 322 321 323 325 326 326 326 327 327 327 327 327 327 327 327 327 326 324 324 323 323 322 322 322 322 323 323 323 323 324 324 324 323 322 322 323 323 321 320 319 320 321 321 322 322
330 331 329 327 329 328 321 323 328 327 327 327 325 323 321 323 327 329 329 329 329 328 328 328 329 329 329 330 330 329 329 328 327 324 317 312 312 317 321 323 324 324 324 325 325 326 327 327 328 328 328 328 328 328 328 328 327 326 325 324 324 324 323 323 323 323 323 323 323 324 324 324 323 322 321 321 321 321 321 321 321 321 321 321 322
330 331 330 329 331 329 321 322 326 327 328 327 327 326 324 324 325 327 328 328 327 327 328 329 329 329 330 330 330 329 329 328 327 322 315 310 310 313 315 318 322 324 324 325 325 326 327 327 327 327 327 327 327 327 327 327 327 327 325 324 323 324 324 324 323 323 323 323 323 324 324 324 324 323 321 319 319 320 321 321 321 321 321 321 321
330 331 331 331 332 329 322 320 323 326 327 327 328 327 326 325 325 327 328 327 326 327 329 329 329 330 330 330 330 329 329 328 326 321 314 310 310 311 314 319 322 323 324 325 325 325 326 325 325 325 326 326 326 327 327 327 327 326 325 323 322 323 324 324 324 325 325 325 324 324 325 324 324 323 321 318 319 321 321 322 321 320 320 321 321
330 331 331 331 331 328 323 321 319 321 325 327 328 328 327 326 326 326 327 326 326 327 329 329 330 330 330 330 329 329 329 328 325 321 316 312 312 313 317 322 323 323 324 324 324 324 323 323 323 323 324 325 325 326 326 326 326 325 323 322 322 322 323 324 324 325 326 326 324 323 324 323 320 318 316 317 319 322 322 322 320 318 318 320 321
330 331 331 332 331 327 325 323 320 318 321 326 327 328 328 327 326 326 326 327 327 328 329 330 330 330 330 330 329 329 329 327 324 322 319 316 316 316 320 323 323 324 324 323 323 323 324 322 321 322 323 324 324 325 326 325 324 323 323 323 323 323 323 324 324 324 325 326 324 324 323 318 312 309 311 317 320 321 321 320 318 315 314 316 318
330 329 330 331 330 328 327 326 323 319 319 325 328 328 328 328 327 328 328 328 329 330 330 330 330 330 330 330 329 329 328 326 324 323 321 319 319 319 321 323 323 324 323 322 322 322 323 323 323 324 324 323 324 324 324 323 322 322 323 323 323 322 323 324 324 324 324 325 323 322 317 311 307 305 310 317 318 320 319 316 313 310 309 309 309
330 329 328 330 330 329 329 328 327 323 321 324 327 328 328 327 328 329 328 328 329 330 330 330 330 330 330 330 329 328 327 326 325 323 322 321 321 322 323 323 323 323 322 322 321 320 322 322 322 323 323 323 323 323 322 321 321 322 323 323 323 323 324 324 324 323 323 323 320 316 310 306 306 306 309 313 313 314 313 310 308 306 305 305 305
329 330 328 329 330 330 330 330 329 328 325 324 326 326 327 327 328 328 328 328 329 330 330 330 330 330 329 329 328 328 327 327 325 324 324 323 324 324 323 323 323 323 322 321 319 319 319 320 320 319 321 322 323 322 321 318 318 320 321 322 323 323 323 323 323 323 322 319 315 310 307 305 305 305 306 307 307 308 307 305 304 303 303 303 303
328 330 330 329 329 330 330 330 330 330 329 328 327 327 327 327 327 327 328 330 329 330 330 330 330 330 329 328 327 327 328 327 327 326 325 325 325 325 324 324 324 323 322 321 319 318 317 317 316 316 319 322 322 321 319 317 314 314 319 322 322 322 322 322 321 320 318 314 309 306 306 305 304 304 304 304 304 304 303 302 302 301 302 301 301
329 330 331 330 330 331 330 330 331 331 330 330 330 329 329 328 329 329 329 330 330 330 330 329 330 330 328 328 328 327 328 327 327 327 326 325 325 325 324 324 324 323 323 322 320 318 317 315 313 314 317 320 320 319 316 313 308 311 319 321 322 322 321 319 317 316 313 309 306 306 305 304 303 302 302 302 302 302 301 301 301 301 301 301 301
330 331 331 331 331 332 332 331 330 330 330 331 331 330 330 330 330 330 330 330 330 330 330 330 330 329 329 328 328 328 328 328 327 327 326 326 325 326 325 325 324 322 323 323 322 322 319 315 313 315 317 318 318 316 314 310 306 309 316 319 319 319 316 314 313 311 308 306 306 305 304 303 302 302 302 302 301 301 301 301 301 301 300 300 300
332 332 331 331 331 331 332 332 331 330 330 331 331 331 330 330 331 331 329 329 330 329 329 329 329 329 328 328 328 328 328 328 328 328 327 326 326 326 325 325 324 323 323 324 324 324 321 317 316 317 318 318 316 314 312 308 306 308 311 312 312 310 309 309 308 307 306 306 306 304 303 302 302 302 301 301 301 301 301 301 301 300 300 300 301
332 332 330 330 331 331 331 331 331 330 330 330 330 331 330 329 330 330 329 329 329 329 329 329 329 329 328 328 328 328 328 327 328 328 327 326 327 326 325 325 324 324 324 325 325 324 321 317 318 319 320 319 316 313 310 306 305 306 307 307 306 306 306 306 306 306 306 306 305 303 302 302 302 302 301 301 301 301 301 301 301 301 301 301 301
332 332 330 328 329 330 332 331 330 331 330 329 329 330 330 329 329 330 329 329 329 329 329 329 329 329 328 328 327 326 327 327 327 328 327 327 327 327 325 325 325 325 325 325 325 324 321 318 318 319 321 319 316 312 307 305 305 306 306 306 306 306 306 306 306 306 306 305 303 302 302 302 301 301 301 301 301 301 301 301 301 301 301 302 302
331 332 331 328 326 326 330 331 331 331 330 329 329 330 330 329 329 330 329 329 329 329 329 329 329 328 328 328 328 327 326 326 326 327 328 327 326 326 325 325 325 325 325 325 325 324 322 321 319 318 319 318 316 312 306 304 306 306 306 306 306 306 306 306 306 306 305 303 302 302 302 301 301 301 301 301 301 301 301 301 302 302 302 302 302
331 331 331 329 327 326 328 331 331 331 330 330 329 330 330 329 328 328 328 329 330 329 329 329 328 328 327 327 328 327 327 326 326 327 327 327 327 326 325 325 325 326 325 325 325 324 322 323 320 317 317 316 315 313 306 304 307 307 306 306 306 307 307 306 306 304 303 302 302 302 302 301 301 301 302 301 301 302 302 302 302 302 302 302 302
331 331 330 329 329 329 330 330 331 331 330 329 330 330 331 329 327 326 327 328 329 330 329 329 328 328 327 327 328 328 327 327 327 327 326 327 328 327 326 325 326 326 326 325 325 323 321 322 319 317 317 315 313 311 305 304 307 306 306 306 306 307 307 305 304 302 302 302 302 302 302 302 302 301 302 302 302 302 302 302 302 302 302 302 303
331 331 331 330 330 330 331 330 330 330 330 329 330 330 330 329 328 327 327 327 329 329 329 330 329 328 328 327 328 328 328 327 327 327 326 326 327 328 326 325 326 327 325 323 323 322 320 320 319 318 318 315 311 308 305 305 307 307 306 307 307 307 306 304 303 302 302 302 302 302 302 302 302 302 302 302 302 302 302 302 302 302 302 302 303
330 330 330 331 330 330 331 331 330 330 330 330 330 328 329 330 329 328 327 326 329 330 330 329 329 329 328 328 328 328 327 327 326 326 325 325 326 327 326 326 326 326 324 321 320 321 320 319 319 318 316 313 309 305 304 306 307 307 306 307 307 306 305 304 302 302 302 302 302 303 302 302 302 302 302 302 302 302 302 302 302 302 303 304 305
328 328 329 330 330 330 331 331 330 329 330 331 329 327 328 330 329 328 327 326 328 330 330 329 329 329 328 328 328 328 328 327 326 326 325 324 325 326 326 325 326 327 324 320 320 321 320 319 319 316 313 310 306 304 305 307 307 306 307 307 307 306 305 303 302 302 303 303 303 303 303 303 303 302 302 302 302 302 302 302 303 304 306 308 309
329 328 330 330 330 329 330 330 330 329 329 329 329 327 328 330 329 328 328 327 327 330 330 329 329 329 328 328 328 328 328 326 326 327 326 325 325 325 326 325 326 326 323 321 321 321 320 320 319 316 312 308 305 304 306 307 307 307 307 307 307 306 304 303 303 303 303 304 304 304 303 303 303 303 303 303 303 303 303 304 306 308 310 311 311
330 330 330 330 329 329 329 330 330 328 326 328 329 328 329 330 328 328 329 327 326 329 330 330 329 328 329 329 328 328 327 326 326 327 326 325 325 325 325 326 326 326 324 322 322 322 322 320 318 316 313 308 305 305 306 308 307 307 307 308 307 306 304 303 303 303 304 304 304 305 304 303 303 303 303 303 304 305 306 308 310 311 311 312 312
330 330 330 330 329 330 329 330 330 328 325 327 329 330 329 329 328 328 328 327 326 328 330 330 329 329 329 328 328 328 327 326 326 326 327 326 326 325 325 325 326 326 325 324 323 323 322 320 319 317 314 309 306 305 307 308 308 307 307 308 307 306 304 303 303 303 304 305 305 305 305 303 303 304 304 305 306 308 310 311 311 312 312 312 312
330 330 330 330 329 329 329 330 330 328 325 326 328 329 329 329 328 328 328 327 326 328 329 329 329 328 329 328 328 328 328 327 326 327 327 326 326 325 325 326 326 326 325 325 324 324 323 320 319 318 316 311 306 306 307 308 308 307 307 308 307 306 304 303 303 303 304 305 306 306 305 304 304 305 305 307 309 311 312 312 312 312 312 312 312
330 330 329 330 329 329 329 329 328 326 325 326 328 329 329 329 329 328 328 328 328 328 329 329 329 328 328 328 328 328 328 327 327 328 328 326 325 325 325 326 326 326 326 325 325 324 323 321 320 319 317 313 308 306 307 308 308 307 307 308 307 306 305 304 303 303 303 305 306 307 306 305 305 306 307 310 311 312 312 312 312 312 312 312 312
328 329 329 329 329 329 328 327 326 325 326 328 328 328 329 330 329 329 328 328 329 329 329 329 328 328 328 328 328 328 327 327 327 328 328 327 325 326 326 326 326 326 325 325 325 323 320 320 320 319 317 313 309 306 307 308 308 308 307 307 307 306 306 305 304 304 303 304 306 307 307 306 306 307 309 311 312 312 312 312 312 312 312 312 312
328 329 329 329 329 328 327 326 326 326 327 328 328 328 329 329 328 329 329 329 329 329 328 328 328 328 328 328 328 328 327 327 328 328 328 326 326 326 326 326 326 326 325 325 325 323 319 318 318 319 317 313 309 307 307 308 309 308 307 307 307 307 307 306 306 305 304 304 305 306 307 307 306 307 309 311 312 312 312 312 312 312 312 312 312
328 328 328 328 329 328 328 327 325 324 325 327 327 329 330 329 328 328 328 328 328 328 328 328 328 328 328 328 328 329 328 327 327 328 328 327 326 326 327 326 326 326 326 325 324 324 322 319 316 316 315 311 309 308 307 308 309 308 308 307 307 307 307 307 307 306 306 305 305 305 307 308 308 307 308 311 312 312 312 312 312 312 312 312 312
326 328 328 327 328 329 328 327 325 325 325 325 327 329 330 328 327 327 328 328 328 328 327 327 328 329 328 328 328 329 328 327 327 328 328 327 326 326 326 326 326 326 326 325 324 323 323 321 317 313 311 310 309 308 307 307 308 308 308 307 307 307 307 307 307 307 307 306 306 305 306 307 309 308 308 310 312 312 312 312 312 312 312 312 312
325 327 328 327 328 328 327 326 325 325 325 326 328 330 329 328 327 327 328 328 328 328 328 328 329 329 329 328 328 328 327 327 327 327 327 327 326 326 326 326 326 326 326 325 324 323 323 322 320 315 311 309 309 308 307 307 307 307 307 307 307 307 307 307 307 308 308 307 307 306 305 306 308 309 309 309 310 312 312 312 312 312 312 312 312
325 327 328 327 327 327 326 325 324 325 326 328 329 329 328 328 328 327 328 328 327 328 329 328 329 329 329 329 328 328 328 327 327 326 326 326 326 326 326 326 326 326 326 325 325 324 323 323 322 320 315 311 310 309 308 307 307 307 308 308 308 308 308 307 307 308 308 308 308 307 307 306 306 307 308 309 310 311 312 312 312 312 312 312 312
326 327 328 327 326 326 325 324 324 324 325 326 327 328 328 329 328 327 328 328 328 328 328 329 329 329 329 329 328 328 328 327 327 326 325 325 325 326 326 326 326 326 326 326 325 325 324 323 323 322 319 316 314 311 310 309 308 308 308 309 309 310 309 309 308 309 309 309 309 308 308 308 307 307 307 308 308 309 310 311 311 312 312 312 312
327 327 328 327 326 326 326 325 324 325 324 324 325 327 328 328 328 328 328 328 328 329 329 329 330 329 329 329 328 328 328 327 327 326 324 324 326 326 326 326 326 325 325 325 325 325 325 324 323 323 322 320 318 315 313 311 310 309 309 309 310 310 310 310 310 310 309 309 309 309 309 309 309 308 308 308 308 309 310 310 311 311 311 312 312
327 328 328 327 326 326 326 326 326 326 324 324 325 327 328 328 328 328 328 328 328 329 329 329 330 329 329 329 329 328 327 327 326 326 325 326 326 327 326 326 326 326 325 325 325 325 325 325 324 323 323 322 320 318 315 314 313 311 310 309 310 310 310 311 311 311 311 310 310 310 310 310 310 311 311 311 311 311 312 312 312 312 312 312 312
327 328 328 328 327 327 326 326 325 325 324 323 325 326 327 328 328 328 328 328 328 328 328 328 329 329 329 328 328 328 328 327 327 326 327 327 327 327 327 326 326 325 325 325 325 325 325 326 325 324 323 322 321 319 318 318 318 316 313 310 310 310 310 311 311 312 312 311 311 311 311 312 312 312 312 312 312 312 313 313 313 313 313 313 313
328 328 328 327 327 327 327 326 324 325 325 324 324 326 327 327 327 327 327 327 327 327 328 328 329 329 328 327 327 327 327 327 327 326 326 326 326 326 326 326 326 326 326 325 325 325 325 325 325 324 323 322 321 319 319 320 320 319 317 313 311 310 310 311 311 312 313 312 313 313 313 313 313 312 313 313 313 313 313 313 313 313 313 313 314
328 328 328 328 327 327 326 325 324 324 325 324 323 325 326 326 325 325 325 325 325 326 327 327 328 328 328 327 326 326 327 327 327 327 326 325 326 325 325 325 326 326 326 325 324 324 324 323 324 325 324 321 320 320 320 320 319 318 317 314 312 311 311 310 311 311 312 313 313 313 313 312 313 313 313 313 313 313 313 313 313 314 314 315 315
327 328 328 328 328 326 326 325 324 324 324 324 323 324 325 325 324 323 324 324 325 325 326 326 326 327 327 327 326 326 327 327 326 327 326 326 326 325 325 324 325 325 325 325 324 323 323 323 323 324 323 321 320 320 321 321 319 317 315 313 312 311 311 311 311 311 312 312 312 312 312 313 313 313 313 314 314 313 313 314 314 314 315 315 316
327 327 328 328 327 326 325 325 324 324 324 324 323 323 324 324 323 322 324 325 324 324 324 325 325 326 326 326 326 326 326 326 326 327 326 326 326 325 323 322 323 324 324 324 324 324 324 324 323 323 324 323 323 322 322 321 319 316 314 313 312 311 311 311 311 312 312 312 312 313 313 313 314 314 314 314 314 314 315 315 315 316 316 316 316
326 326 327 328 327 325 326 326 325 324 323 323 322 322 323 323 322 321 323 324 323 323 323 324 326 327 326 326 326 326 326 326 326 326 326 326 325 324 323 322 322 323 323 323 323 324 324 324 323 322 323 323 323 323 322 322 321 317 314 313 312 312 312 312 312 312 312 312 312 313 313 314 314 314 315 316 316 316 316 316 316 316 316 316 316
324 325 326 327 326 325 325 327 326 323 322 322 322 322 323 322 320 320 321 322 322 323 324 325 326 326 326 326 326 326 326 326 326 325 325 324 324 324 324 323 323 324 324 324 324 324 324 323 322 322 322 322 322 322 322 322 321 317 314 312 312 312 312 312 311 311 312 312 313 314 315 316 316 316 316 316 316 316 316 316 316 315 315 315 314
324 323 324 325 326 324 324 326 326 324 322 322 323 324 323 321 320 321 322 322 323 324 325 325 325 326 326 326 326 325 325 325 324 324 323 323 323 324 325 324 324 324 324 324 324 324 323 322 321 321 321 321 322 322 322 321 318 315 313 312 312 312 311 312 312 313 314 315 315 315 316 316 316 316 316 316 315 315 315 315 314 313 313 312 312
322 323 324 324 325 325 324 325 326 325 324 324 325 325 323 322 322 322 323 323 323 324 325 325 325 325 326 326 325 325 325 324 323 322 321 322 323 324 324 323 323 323 322 322 321 321 321 320 320 321 320 320 320 320 319 318 315 314 313 313 314 314 314 316 316 316 316 315 315 315 316 316 316 316 315 315 314 313 313 312 311 310 310 309 309
319 321 322 323 324 325 325 325 326 326 326 326 326 325 324 324 324 324 323 324 324 324 324 325 325 325 326 326 325 324 324 324 322 321 320 321 322 322 321 321 320 320 320 319 319 319 319 318 318 319 318 317 317 317 316 315 315 315 315 316 316 316 316 317 316 315 315 314 315 315 315 315 314 313 312 311 310 309 309 308 307 307 306 306 305
315 317 318 319 320 322 324 324 325 326 326 326 326 325 325 325 325 324 324 324 324 324 324 325 325 325 326 326 324 323 323 323 323 321 320 319 320 320 319 319 319 319 319 319 319 318 318 317 317 316 316 316 316 316 316 316 316 316 316 316 316 316 316 315 315 315 314 314 314 313 312 311 310 309 308 307 306 306 304 304 303 303 302 301 301
310 312 313 314 313 315 319 322 324 325 326 326 325 325 326 326 325 324 324 324 324 324 324 324 325 324 324 325 324 323 322 322 322 321 319 319 319 319 319 318 318 318 317 317 317 317 317 317 317 316 316 316 316 316 316 316 316 316 316 316 315 316 316 314 312 312 312 311 310 308 307 307 306 305 304 302 302 304 304 303 302 301 300 299 300
Wind_Speed
10 10 11 10 11 13 14 17 18 20 22 23 22 20 18 16 14 11 9 7 6 4 3 2 3 5 6 7 7 7 8 8 8 7 7 6 6 6 7 9 10 12 12 13 13 12 12 12 11 11 11 11 10 10 9 9 8 8 8 8 9 9 10 11 11 11 12 12 13 14 15 14 14 15 15 15 15 16 16 16 16 17 17 17 18
10 9 10 10 10 12 15 17 19 21 21 23 23 22 20 18 16 14 11 8 7 5 3 2 2 3 4 5 5 5 7 7 7 6 6 6 7 7 8 9 11 12 13 13 13 12 12 11 11 11 10 10 9 9 8 8 8 8 8 8 8 9 10 10 11 11 11 12 13 13 13 14 14 13 13 14 14 15 15 15 15 16 16 17 17
10 10 10 10 10 11 15 18 20 22 21 21 23 23 22 20 17 15 12 10 8 7 4 3 1 1 2 3 3 4 5 6 5 5 5 5 8 8 8 9 11 12 13 13 13 12 11 10 10 10 9 9 9 9 8 8 8 8 8 8 8 8 9 10 11 11 11 11 12 13 13 13 13 12 12 12 13 13 14 15 15 16 16 17 17
11 11 10 10 10 11 15 19 21 23 23 21 21 22 23 21 19 16 14 11 10 8 6 4 3 1 0 1 2 3 4 5 4 4 3 4 8 9 8 7 9 11 11 11 11 10 9 9 8 8 8 8 8 8 8 9 9 9 9 8 8 8 8 9 9 9 10 10 11 13 13 13 13 13 12 12 12 13 14 14 15 16 16 17 17
12 11 10 10 11 11 14 19 21 23 24 22 20 21 22 22 20 18 15 13 11 9 8 6 4 3 2 1 1 2 3 3 3 3 3 4 7 8 8 7 7 7 7 7 8 8 7 6 6 6 6 6 6 6 6 7 8 9 9 9 8 8 8 8 8 8 9 9 9 11 12 13 14 14 13 12 11 12 13 14 14 15 15 16 17
13 12 11 12 13 12 13 17 20 22 23 23 21 20 21 22 21 19 17 14 12 10 8 7 5 4 4 3 2 2 2 3 3 3 3 4 7 9 9 9 8 6 4 4 6 6 5 5 4 4 4 4 4 4 4 5 6 7 8 8 8 8 8 7 7 8 8 8 8 10 11 12 12 14 14 13 12 12 12 13 13 14 14 15 17
14 13 13 13 14 13 13 17 20 22 23 23 22 20 20 21 21 20 18 15 13 11 9 8 6 5 5 4 4 3 3 4 4 3 4 5 7 8 9 10 9 8 6 4 3 4 4 3 3 3 3 3 3 3 3 4 4 5 6 7 7 7 7 7 7 8 8 8 9 9 10 10 10 11 13 13 12 12 12 13 13 13 13 15 16
15 15 14 14 14 14 15 17 20 22 23 24 23 20 20 21 21 20 19 17 14 12 10 9 7 6 6 6 5 5 5 5 5 4 5 7 8 8 8 8 7 7 7 5 3 3 3 3 3 3 3 3 3 3 3 3 4 4 5 6 6 6 6 6 6 7 7 8 8 8 8 8 8 9 10 11 11 12 12 13 13 13 13 14 15
16 15 15 15 15 15 15 16 19 22 24 25 24 22 21 21 21 20 19 17 15 14 11 10 8 7 7 7 7 6 6 7 7 6 6 7 8 8 9 8 7 7 6 5 4 3 3 2 2 2 2 3 3 4 4 4 5 5 5 5 5 5 4 4 5 5 5 6 6 5 6 7 8 8 9 9 10 11 12 12 13 13 14 14 14
17 16 16 16 16 16 16 16 18 20 24 26 25 23 22 21 21 20 19 17 16 14 12 11 9 8 8 9 8 8 8 9 8 7 7 8 8 9 9 7 7 7 6 5 4 3 3 2 2 2 2 3 4 5 5 5 5 5 4 4 4 3 3 3 4 4 4 5 5 5 6 8 8 8 8 9 9 10 10 11 11 11 12 13 13
17 17 18 18 18 18 18 17 17 19 23 27 26 25 23 21 20 19 18 17 16 14 13 11 9 9 9 10 9 9 11 11 10 9 9 8 9 8 8 7 7 7 6 5 3 3 3 3 4 3 3 4 5 5 6 6 5 5 4 4 4 3 3 4 4 4 4 5 6 7 8 8 8 7 8 9 9 9 9 10 10 10 10 11 11
18 19 20 20 21 20 20 19 18 18 22 26 27 26 25 23 21 20 19 18 17 15 13 11 10 10 9 9 10 11 13 12 11 10 9 9 9 8 8 8 7 6 5 4 4 4 4 5 6 5 4 5 6 6 6 5 5 5 5 5 5 5 5 5 5 6 6 7 7 8 7 7 7 7 8 9 9 8 8 9 9 9 10 11 11
20 21 22 23 23 23 22 22 21 20 21 23 24 25 25 23 23 21 20 19 18 17 15 12 11 12 11 9 11 13 13 12 11 11 10 9 9 8 9 8 7 6 5 4 4 4 5 5 6 7 6 6 6 6 5 4 4 5 5 6 6 7 7 7 7 7 7 7 7 7 7 7 8 8 8 9 8 8 8 9 9 9 10 11 11
22 23 24 25 25 26 25 24 24 23 22 22 22 23 24 23 24 22 21 19 17 17 17 15 14 14 13 10 12 13 12 12 12 11 11 10 10 9 9 8 7 6 6 5 5 5 6 6 7 7 7 7 6 5 4 4 4 4 6 7 8 9 9 8 8 8 7 7 6 6 6 7 8 8 9 10 9 9 9 9 9 10 11 11 11
23 24 25 26 26 28 29 27 26 24 23 23 23 23 23 24 24 22 21 19 17 17 17 17 16 14 13 12 14 14 12 14 14 13 13 11 10 9 8 8 7 7 6 6 6 6 6 6 6 7 7 7 6 5 4 4 5 6 6 7 9 9 8 7 7 6 6 6 6 6 7 7 8 9 9 10 9 9 9 9 10 10 11 11 11
25 26 27 27 27 28 30 29 26 25 25 25 25 25 24 24 24 23 22 19 18 19 18 17 16 16 15 14 15 15 13 15 17 15 14 13 12 11 9 8 8 8 7 6 6 6 6 6 6 7 7 7 6 5 4 4 5 6 6 6 7 7 6 6 5 5 4 5 6 6 7 7 8 8 8 9 8 8 9 9 10 11 11 12 13
25 26 27 28 29 29 30 29 27 27 27 27 27 26 25 24 24 23 22 20 19 21 20 19 18 18 18 15 14 14 13 14 16 15 15 14 13 12 10 9 9 9 8 7 7 7 7 7 7 6 6 6 5 4 4 4 5 6 6 6 6 5 5 5 5 4 4 5 6 6 6 7 7 8 8 8 8 9 9 10 11 12 13 14 15
24 25 24 26 28 30 31 30 29 29 28 27 27 26 25 24 25 24 22 20 19 20 20 20 20 19 20 18 14 11 12 15 16 14 14 14 13 12 11 10 11 10 9 8 7 7 8 8 7 7 6 5 5 4 4 5 5 6 6 6 6 5 5 5 5 4 4 5 5 6 6 7 8 8 8 8 9 10 11 12 13 14 15 16 16
24 24 23 24 27 30 31 30 30 30 28 27 26 25 25 25 25 24 21 19 19 20 19 20 21 19 19 20 17 12 9 13 16 15 15 15 13 13 12 12 13 12 11 10 9 8 8 8 7 7 6 5 4 3 4 6 6 6 5 5 5 5 5 5 4 4 4 4 5 6 7 7 8 8 9 10 11 12 13 13 14 15 15 16 16
23 24 24 24 26 28 29 29 31 31 28 26 26 26 25 25 25 24 21 20 20 20 19 20 21 21 20 21 21 16 11 10 14 15 14 15 15 15 15 14 13 14 13 12 10 9 9 8 7 7 6 6 5 4 5 7 7 6 5 5 5 6 6 5 4 4 4 5 5 6 7 8 9 9 10 11 12 13 13 14 14 14 14 15 15
22 23 24 24 25 26 27 29 30 30 28 26 26 26 25 24 24 23 22 21 21 20 20 19 20 21 22 22 22 20 15 11 12 14 14 14 14 16 16 16 15 14 14 14 12 11 10 9 8 8 7 6 5 5 6 8 7 6 5 5 6 6 5 5 5 5 5 5 5 6 7 8 9 9 10 11 12 12 13 13 13 13 13 14 14
22 23 24 24 25 24 25 26 28 28 26 26 26 27 26 24 23 23 23 22 22 21 21 20 19 20 21 22 23 21 18 13 12 15 16 13 12 14 16 17 16 15 15 15 13 12 11 10 10 9 8 6 6 7 8 9 8 7 6 6 6 5 5 4 5 5 5 5 5 6 7 8 9 9 10 11 11 11 12 11 12 12 12 13 13
21 22 23 24 25 24 24 25 27 27 26 26 26 25 25 24 23 23 24 24 23 22 23 22 19 19 20 21 22 21 18 15 12 14 18 16 12 13 14 15 16 15 17 17 14 13 12 11 11 9 8 7 7 8 10 10 9 8 7 6 5 5 4 4 5 5 5 5 5 6 7 7 8 9 9 9 10 10 10 10 10 11 11 12 13
21 22 22 24 25 25 25 26 28 29 27 25 24 24 25 25 23 23 25 25 25 24 24 23 21 19 19 20 21 20 19 16 11 11 17 18 14 13 12 13 15 15 17 19 16 15 13 12 12 11 9 8 8 10 11 11 10 9 8 7 5 4 4 5 5 6 5 5 5 6 7 7 7 8 8 8 8 9 9 9 9 10 11 12 12
24 22 21 22 25 26 27 27 29 29 28 25 24 27 28 25 24 24 25 27 26 26 25 23 22 21 19 20 21 19 18 18 13 9 14 17 15 13 11 12 14 14 17 19 17 15 14 13 13 12 11 9 10 12 12 12 10 9 9 8 6 5 4 5 5 6 5 5 4 4 5 6 6 6 6 7 8 9 9 9 9 10 10 11 12
25 23 20 20 23 26 27 28 29 27 26 25 26 29 29 25 24 24 25 27 27 26 25 23 23 22 20 19 20 19 18 19 16 11 12 15 16 15 13 12 12 13 17 20 18 15 14 14 13 13 11 10 12 13 13 12 10 10 10 8 7 6 5 5 5 6 5 4 4 3 4 5 6 6 6 7 8 9 9 9 8 9 9 10 11
25 23 20 19 22 26 27 29 29 25 24 25 26 28 27 25 24 25 25 27 27 26 25 24 24 23 21 19 19 19 19 20 19 14 12 13 15 16 14 13 12 12 16 19 19 17 15 14 13 13 12 12 13 14 14 12 11 10 10 9 8 7 6 6 6 6 5 4 3 2 2 4 5 5 6 7 8 9 8 8 7 7 8 9 10
24 23 20 17 19 23 25 28 31 29 27 27 26 25 26 25 26 27 26 26 26 26 25 25 25 23 22 21 20 20 20 20 20 16 12 12 14 15 15 15 14 13 14 16 19 18 16 16 15 15 14 13 14 15 14 13 11 11 10 9 9 9 8 7 7 6 5 4 3 2 2 4 5 6 7 7 8 8 7 6 6 7 7 8 8
22 20 19 17 17 20 22 26 31 31 28 27 26 25 25 25 27 28 27 27 27 27 26 26 25 24 23 23 22 21 20 20 19 17 14 12 14 15 15 16 15 13 14 16 18 18 18 18 17 16 16 14 15 16 15 13 12 11 11 10 10 10 9 8 7 7 6 5 4 4 4 5 6 7 7 7 7 6 6 5 6 6 6 6 6
20 19 19 18 16 18 19 23 28 28 26 26 26 25 25 25 27 28 27 27 27 28 27 26 26 25 24 24 23 22 22 21 20 18 15 13 14 15 15 16 16 14 13 14 15 15 16 17 17 16 16 15 16 16 15 14 12 12 11 10 10 11 10 9 8 7 7 6 6 5 5 6 7 7 7 7 7 6 5 5 5 5 4 4 4
18 18 19 19 16 18 21 22 25 25 24 25 25 25 26 26 27 28 26 26 27 27 27 27 27 26 25 24 24 23 23 22 21 19 17 15 15 15 15 16 17 16 14 13 11 10 10 12 15 16 15 16 16 15 16 15 13 13 12 11 11 11 11 10 9 9 8 8 7 6 6 6 7 8 8 7 6 5 5 4 4 3 2 2 1
18 17 18 19 18 21 25 24 23 22 22 23 23 24 26 27 27 27 26 27 27 28 28 28 27 25 25 24 23 23 24 23 22 21 18 16 15 16 16 17 18 16 15 14 12 10 7 7 12 16 15 16 16 15 15 15 14 13 13 12 12 11 11 10 10 10 9 9 9 8 8 8 8 9 9 8 7 6 5 4 4 3 2 2 3
17 16 17 19 18 20 25 24 22 22 22 21 22 24 25 25 26 26 26 27 27 28 28 26 26 25 25 24 23 22 23 23 23 22 19 17 16 16 17 18 18 17 15 16 14 12 10 8 11 16 16 16 16 15 15 16 14 13 13 12 12 12 12 11 11 11 10 10 10 10 10 9 10 10 10 9 9 8 7 6 6 6 6 6 6
15 15 16 17 18 19 22 22 22 23 22 21 22 24 25 24 24 24 27 28 28 27 25 23 24 24 24 24 23 23 23 23 23 22 21 19 17 18 18 19 19 18 17 17 16 14 13 10 10 14 16 16 16 15 15 15 14 13 12 12 12 13 13 12 12 12 11 12 12 12 12 11 11 11 11 11 11 10 10 9 9 9 9 9 10
16 14 14 16 18 20 20 21 21 21 21 21 23 23 23 23 22 24 27 28 27 25 23 22 22 22 22 23 23 24 24 24 24 23 22 21 20 20 20 20 20 19 18 18 17 16 15 13 11 12 14 16 15 15 15 15 15 14 13 12 13 13 13 13 13 12 12 12 13 13 13 13 12 12 12 12 13 13 12 12 12 12 12 12 13
16 14 13 16 20 21 22 22 21 21 20 21 21 22 23 23 23 24 26 26 25 23 22 21 21 21 22 23 24 24 24 24 25 24 23 23 23 21 21 20 21 20 19 18 18 17 16 16 14 13 13 14 15 14 15 15 16 15 14 14 13 14 14 14 14 14 13 13 13 14 14 14 14 14 14 14 14 14 14 14 14 15 15 15 15
16 15 15 19 23 24 23 23 22 21 20 19 20 21 22 24 24 24 24 23 24 24 22 22 22 22 22 23 24 24 24 24 24 24 24 25 24 22 21 21 21 21 19 18 18 18 18 18 17 16 15 14 14 15 15 16 16 16 16 15 15 15 15 15 15 15 15 14 14 14 14 15 15 16 16 16 15 15 16 16 17 18 18 19 19
16 17 18 21 25 25 24 24 24 22 21 20 20 20 22 22 21 21 21 21 22 22 22 22 23 23 23 23 24 24 24 24 23 23 25 26 25 23 22 21 21 21 20 18 18 18 18 18 19 18 17 17 16 15 16 17 18 18 17 16 16 15 15 15 15 15 15 15 15 14 14 15 15 16 16 16 16 16 17 18 19 20 21 22 23
16 18 20 21 25 27 26 25 24 22 21 21 20 19 20 19 17 18 19 19 20 21 22 23 23 22 23 24 25 24 24 24 23 23 24 25 26 25 23 22 21 21 20 19 19 19 19 20 22 22 21 19 18 18 17 17 18 19 19 19 18 17 16 14 14 13 13 14 15 14 14 14 14 14 15 15 15 15 16 17 19 21 22 24 25
17 19 20 21 23 26 27 25 23 21 21 22 20 19 18 18 17 18 18 19 20 20 21 22 22 22 23 24 23 23 23 24 24 23 23 24 26 25 24 22 22 22 22 20 20 20 21 22 23 23 23 22 21 21 20 19 19 20 21 22 20 18 17 14 13 12 12 12 14 14 14 13 14 14 14 15 16 15 16 18 20 22 23 25 26
18 18 19 21 22 25 26 24 23 22 23 23 22 20 19 19 19 18 18 18 19 20 21 21 21 21 21 22 21 22 22 23 24 23 23 24 24 24 23 23 24 24 23 22 22 22 22 23 23 23 24 25 23 23 22 20 19 19 20 21 21 19 18 17 15 14 13 13 14 15 15 15 15 16 17 18 18 18 19 20 21 22 24 25 26
18 18 19 21 22 23 26 26 25 24 24 23 22 21 20 20 19 19 18 17 18 19 19 20 20 20 21 21 20 20 21 22 24 24 23 22 22 22 22 23 24 24 24 23 24 24 23 23 24 24 25 26 26 24 22 20 18 18 19 19 19 19 19 18 18 17 16 16 16 17 18 17 17 18 19 19 19 19 19 21 21 21 22 23 24
18 18 20 22 22 23 25 26 25 24 24 23 23 22 21 20 20 19 18 17 17 18 18 18 19 19 20 19 19 20 21 22 22 22 21 20 20 19 20 22 23 24 24 25 25 25 23 23 25 24 22 25 27 26 23 21 19 18 19 18 18 18 18 18 19 19 18 18 18 18 19 18 17 18 19 19 20 20 20 20 21 21 22 23 24
17 18 20 22 22 22 24 26 25 24 23 23 24 23 22 22 22 20 18 18 18 18 18 18 19 19 19 19 19 21 21 21 21 19 18 18 19 18 19 20 21 22 22 23 24 25 24 24 25 23 21 24 27 27 25 23 20 19 19 18 18 17 17 18 19 20 19 18 18 19 20 20 19 19 20 20 19 19 19 19 20 23 25 26 27
16 18 20 21 23 24 25 26 26 24 23 23 24 23 22 22 22 20 19 19 19 18 18 19 19 20 20 20 21 21 21 20 19 17 17 17 18 18 18 18 18 18 18 19 20 21 21 21 22 22 22 23 25 26 26 23 21 21 20 19 18 17 18 18 19 21 21 19 20 21 21 22 21 19 18 17 17 19 20 22 24 27 28 28 29
16 18 19 20 23 25 25 25 25 24 23 23 23 22 22 22 21 20 20 21 20 19 19 20 21 20 20 21 22 22 20 19 19 17 16 16 16 16 17 17 17 16 16 16 17 17 18 19 20 21 22 23 24 25 25 23 22 21 19 19 18 17 18 19 19 21 21 20 19 18 16 17 18 17 16 18 20 22 24 24 25 26 27 27 28
17 18 19 20 22 25 25 25 25 25 24 22 22 22 22 22 22 22 22 22 22 22 22 23 22 22 21 21 22 21 19 19 18 17 16 15 15 15 16 15 15 14 14 14 15 17 18 19 20 21 21 22 23 23 23 21 20 19 19 18 17 17 17 17 17 18 17 15 14 13 13 15 18 19 19 20 21 22 23 24 24 25 26 27 28
17 17 18 19 22 25 26 26 26 26 26 24 24 24 23 22 23 23 23 23 23 24 24 23 23 22 21 22 23 22 20 19 18 16 14 13 13 13 13 13 12 12 12 13 13 15 17 18 19 19 18 19 21 22 21 20 19 18 16 15 14 14 13 11 10 11 11 11 12 13 14 16 19 20 19 21 21 21 22 23 24 26 26 27 27
15 16 18 20 22 25 27 27 26 27 29 28 26 24 24 24 24 25 24 23 23 24 24 23 23 22 22 22 23 22 20 19 17 15 14 13 13 13 12 11 10 10 10 11 11 11 12 13 15 17 17 18 18 19 18 16 15 13 11 10 9 9 9 7 7 10 13 15 15 15 15 17 19 20 20 21 22 21 22 23 25 25 25 24 24
15 13 14 16 18 21 24 25 26 27 28 27 25 25 25 25 25 26 25 24 23 23 24 23 22 22 22 22 21 19 18 19 18 16 15 14 13 13 12 11 11 11 11 10 9 9 9 9 10 12 14 13 12 12 12 11 9 8 7 7 7 7 8 8 10 12 14 16 17 15 15 17 19 19 20 20 20 21 22 21 20 20 21 21 22
18 14 13 11 9 10 17 22 24 27 28 27 27 28 29 27 27 27 26 25 25 24 24 23 22 21 21 21 20 19 19 19 18 17 16 15 14 13 12 12 13 13 13 11 10 9 9 10 10 10 10 10 9 9 9 8 8 8 7 7 8 9 10 9 10 10 12 15 17 16 16 17 17 18 19 19 17 16 16 14 15 17 19 19 20
Wind_Direction
206 205 200 194 194 197 196 196 197 198 199 199 199 200 203 205 205 204 195 185 180 166 141 107 87 81 78 77 78 76 68 63 68 73 77 94 111 123 132 133 131 126 122 118 114 113 111 109 107 103 100 96 94 90 87 83 78 75 70 67 63 63 62 60 61 63 66 67 67 66 65 64 63 62 61 62 61 61 63 63 63 63 62 62 61
214 217 217 213 206 204 202 199 199 200 201 202 203 203 206 208 208 208 202 193 191 189 177 151 104 78 78 80 80 71 63 61 64 70 79 102 119 125 131 135 134 130 126 121 117 115 113 111 107 103 100 96 94 91 87 83 78 73 70 67 65 65 66 65 66 67 67 65 64 64 62 61 60 60 60 61 61 61 63 63 63 63 63 62 61
217 224 226 220 212 209 207 203 201 201 201 202 205 206 207 210 211 211 209 203 199 198 197 188 178 87 77 80 79 66 63 65 66 71 79 111 125 120 121 130 134 132 126 121 117 116 113 109 104 100 96 93 90 85 83 78 73 71 70 70 69 69 70 71 71 70 67 64 62 59 57 55 53 54 57 59 60 60 61 62 62 62 61 61 61
222 226 227 222 215 213 210 205 201 202 203 202 204 206 207 209 210 212 212 208 204 204 206 203 209 235 173 94 84 69 67 74 78 76 79 126 131 119 117 129 136 132 126 123 119 116 113 109 104 98 94 94 89 80 77 75 71 70 72 71 71 73 72 72 73 71 67 63 61 58 54 52 50 49 52 56 59 61 62 63 63 62 61 61 61
227 226 225 223 216 213 209 205 202 203 204 203 203 204 204 206 208 211 212 210 208 209 211 212 218 229 212 181 138 102 86 91 98 94 97 142 145 134 134 136 137 133 125 127 125 119 116 113 108 101 95 98 93 79 73 71 68 69 72 73 74 76 74 73 75 72 68 63 58 59 58 54 53 54 54 58 60 63 64 64 64 63 62 63 64
226 223 220 218 215 217 210 204 205 204 204 203 204 204 202 203 206 210 212 212 212 213 214 219 224 221 205 192 176 152 134 127 129 129 125 153 159 154 158 155 151 147 128 121 125 123 121 121 124 116 105 105 101 86 74 71 69 67 69 73 75 77 77 77 77 72 67 64 60 62 63 60 60 60 58 59 62 64 66 65 63 62 62 65 67
224 221 219 218 218 222 214 206 206 206 205 205 205 205 203 202 205 209 212 213 214 215 215 221 221 207 198 191 184 177 161 153 157 152 144 156 161 165 171 164 155 154 144 133 132 132 132 132 132 131 124 117 105 93 85 80 75 68 66 69 71 74 77 78 77 74 67 63 62 63 63 59 58 61 60 60 63 67 68 68 67 65 66 67 68
223 222 220 220 223 225 220 211 208 207 206 206 206 207 205 203 205 209 214 217 219 220 219 221 216 197 191 193 193 186 170 167 171 162 155 158 161 164 161 151 153 161 155 151 152 141 136 135 134 132 122 112 105 102 99 92 85 76 66 64 65 64 71 77 75 78 72 61 59 65 65 58 58 62 61 62 67 69 71 73 72 70 71 69 67
222 223 224 224 227 226 223 217 211 208 206 206 207 208 209 208 207 211 217 221 223 223 222 222 216 197 192 197 197 186 177 179 174 164 163 161 160 159 152 151 165 169 158 154 152 141 134 135 138 132 113 105 105 104 104 100 89 78 68 66 66 57 60 76 75 77 80 65 54 62 67 67 70 68 65 69 71 72 76 76 72 71 73 72 69
223 223 226 228 227 223 222 220 214 209 205 205 207 208 210 210 211 214 216 220 223 221 221 224 216 201 199 201 196 187 186 186 176 169 168 164 165 163 158 163 170 162 154 153 148 145 143 128 111 104 105 106 104 104 106 102 90 82 80 80 83 75 72 94 85 71 79 73 62 73 78 78 78 72 72 78 76 78 81 74 70 72 75 75 74
230 227 227 228 225 220 220 218 213 207 203 202 205 207 209 211 212 214 213 216 218 216 219 221 212 206 205 202 197 192 190 185 177 175 172 168 170 170 167 167 164 158 157 158 155 151 144 135 125 117 119 112 107 108 103 98 94 89 93 94 97 102 101 113 104 78 79 85 84 89 87 82 78 74 82 89 87 87 79 67 68 74 76 75 73
237 233 231 228 222 218 217 216 212 206 202 201 204 207 209 211 211 211 212 213 212 213 217 214 208 207 204 205 203 194 187 182 180 178 174 174 174 173 173 168 163 165 165 162 158 147 140 144 141 131 123 112 107 107 97 91 97 94 92 92 96 108 112 116 109 94 93 95 93 92 88 81 76 75 86 94 91 84 73 66 71 76 77 75 72
241 237 232 228 224 221 217 216 214 208 204 204 206 209 210 210 211 211 212 213 212 211 211 208 206 203 197 202 199 188 182 182 184 183 180 179 181 181 178 171 170 173 171 164 151 142 144 144 138 131 126 118 109 101 88 81 98 102 96 92 94 104 109 111 107 101 100 99 96 95 89 84 81 81 87 90 87 80 76 76 78 79 78 76 74
243 242 236 230 226 226 222 216 214 211 208 206 206 209 209 208 210 210 210 214 217 215 208 202 202 201 196 188 180 180 184 187 188 189 188 185 185 188 184 178 182 181 174 163 147 141 148 143 134 133 132 128 121 109 95 84 97 113 107 100 98 98 99 101 100 101 103 103 100 95 92 89 86 87 88 88 88 85 84 84 82 80 78 76 75
245 246 243 236 229 227 225 218 216 215 213 211 208 208 208 208 209 209 209 213 218 216 209 202 199 197 193 184 175 177 187 196 197 194 194 191 188 193 192 187 189 187 179 164 154 151 150 143 138 139 138 135 129 121 114 97 98 115 118 108 102 100 99 95 94 102 109 106 101 97 94 91 87 87 87 87 88 88 86 84 82 79 78 77 77
249 249 248 243 235 231 229 223 219 217 216 216 215 212 211 212 213 211 210 212 212 210 206 202 201 195 191 186 183 186 192 198 199 198 198 197 194 195 194 191 193 190 182 169 164 167 162 151 146 146 144 138 129 125 118 101 100 118 130 126 115 112 110 106 107 114 114 107 104 101 95 91 87 83 82 83 84 85 85 84 83 83 81 80 79
255 252 249 245 241 239 236 229 223 219 217 218 221 220 218 218 218 215 212 213 212 209 204 201 203 203 200 191 184 195 202 194 191 196 202 202 199 199 195 191 193 189 181 176 174 178 173 162 157 156 150 140 131 130 126 117 119 125 137 142 135 130 127 121 120 118 113 110 106 101 94 87 83 80 80 82 84 86 86 87 87 86 85 83 82
259 257 253 247 245 246 243 235 227 223 220 220 224 226 225 223 222 220 216 215 214 213 208 203 203 207 211 207 197 202 206 193 187 189 197 201 201 201 197 194 195 190 183 179 179 183 178 169 168 167 161 153 144 144 146 143 144 143 145 145 138 135 131 122 117 116 114 112 106 99 92 87 85 85 86 87 87 88 88 89 89 88 88 86 84
259 261 259 250 247 251 249 240 232 227 223 223 227 229 227 224 223 222 219 216 215 215 214 209 206 206 211 214 215 219 214 202 195 186 186 195 200 199 196 197 199 195 189 184 183 186 183 178 178 175 172 169 160 155 160 159 155 154 153 148 141 136 131 125 122 123 119 114 108 100 96 94 92 91 90 89 88 88 89 89 90 89 88 85 82
261 262 261 252 249 252 251 243 235 230 226 225 227 229 228 224 221 220 219 216 216 217 217 216 213 210 207 209 217 225 225 214 202 194 185 186 195 199 194 194 201 198 191 188 189 189 189 190 190 187 185 183 177 165 163 165 162 159 158 154 150 146 142 138 134 130 125 117 110 103 100 97 95 93 91 90 89 89 90 90 89 87 85 81 77
270 266 261 255 251 251 247 240 235 231 228 226 227 228 228 225 222 220 218 216 218 219 219 220 219 216 212 209 213 220 223 217 206 201 194 183 190 199 195 190 196 199 193 190 193 192 193 197 197 196 195 191 189 180 170 169 167 166 164 159 158 156 152 146 137 133 128 120 112 105 102 97 95 94 93 92 92 92 90 89 87 83 80 76 71
274 270 265 260 256 250 243 235 231 232 231 226 225 225 224 224 225 224 221 218 218 220 221 222 223 222 220 214 212 214 216 212 203 199 198 194 189 193 196 193 192 196 195 192 194 194 195 198 197 198 199 195 194 186 176 174 173 173 169 162 163 165 158 150 140 137 131 124 117 110 104 98 96 94 93 93 92 92 90 86 83 79 75 71 68
275 271 267 264 260 252 241 232 229 230 231 227 226 225 221 223 227 227 224 220 218 220 221 220 221 223 224 221 217 216 214 211 208 201 199 200 192 186 193 195 193 196 196 192 190 191 193 195 196 200 201 200 199 188 180 178 178 178 171 164 167 170 164 157 148 143 138 130 123 114 107 101 98 96 94 95 93 91 89 84 80 78 76 75 74
275 269 264 261 258 249 240 233 228 227 230 227 225 225 224 225 227 227 224 221 218 221 222 219 217 217 218 220 221 222 221 219 223 216 205 203 198 190 192 194 192 194 197 193 189 190 192 193 197 202 202 201 198 187 181 180 180 179 172 166 170 172 170 166 157 153 146 137 127 117 110 104 101 100 99 101 100 95 91 87 85 86 85 84 82
275 269 266 263 256 246 239 235 229 229 230 225 222 225 227 227 227 225 223 222 220 220 221 218 215 213 212 214 218 220 221 218 218 218 209 206 203 198 196 193 191 191 193 194 194 195 195 197 200 202 201 201 195 186 182 182 183 181 173 168 169 169 173 173 167 163 153 139 128 114 109 109 107 108 109 111 107 102 99 97 95 95 92 88 85
279 274 273 269 255 242 236 235 232 229 226 220 219 225 228 229 229 225 221 222 221 220 221 217 214 213 212 212 214 217 217 214 214 213 207 205 206 208 202 190 188 193 193 196 202 204 202 204 204 201 201 200 194 187 184 182 183 183 176 171 167 164 172 179 174 170 161 145 133 115 112 121 123 127 130 124 116 111 109 106 102 97 91 89 88
285 280 276 267 253 241 235 232 228 219 215 218 221 224 226 227 228 225 222 222 221 221 221 218 214 213 212 212 213 215 216 213 213 214 208 200 204 212 212 197 187 191 196 202 209 213 212 212 211 207 205 201 194 189 185 184 183 184 180 176 172 165 169 180 181 180 172 160 152 142 138 140 140 145 143 134 126 121 117 113 107 98 94 92 92
283 280 274 265 254 247 242 233 223 210 209 219 223 224 227 228 226 224 222 221 221 220 220 219 216 213 212 211 210 212 214 213 213 214 211 201 200 208 216 212 198 188 193 206 215 218 217 216 215 213 210 204 196 191 188 187 186 185 185 182 178 170 169 179 185 186 183 179 178 180 179 166 158 159 154 143 136 131 125 120 113 106 101 97 94
279 276 273 269 258 252 246 231 218 209 209 220 225 225 227 228 225 222 219 217 218 218 216 216 215 213 212 211 210 211 211 212 213 214 211 205 202 202 209 218 211 197 197 208 216 220 220 216 215 215 214 209 201 193 190 190 189 189 188 187 183 174 171 178 186 191 194 197 200 202 199 182 171 170 165 157 150 142 137 131 123 115 106 101 96
277 273 270 270 259 242 232 216 208 209 213 222 228 228 227 227 224 222 219 217 219 218 215 214 212 211 212 211 211 212 211 210 213 217 217 210 206 203 205 215 217 213 212 215 220 225 226 221 216 215 216 214 208 197 192 193 194 193 191 189 187 180 175 179 187 196 202 207 213 216 213 197 184 181 178 172 165 158 152 144 135 126 116 108 99
272 269 266 267 254 224 211 205 206 212 218 225 229 228 225 224 222 222 221 219 220 219 216 213 210 209 212 212 211 211 210 210 212 217 219 214 208 205 206 212 216 219 221 222 224 225 228 225 219 218 218 215 210 202 196 196 197 197 195 192 191 187 183 184 190 198 206 212 218 223 223 212 199 194 192 190 187 182 177 169 159 152 142 137 124
267 266 265 269 255 218 205 206 209 214 222 228 232 230 224 221 220 221 221 220 219 217 215 214 211 210 214 215 213 212 212 210 211 213 215 214 210 207 209 212 215 219 221 224 225 221 222 219 210 213 215 212 209 206 201 201 201 202 200 199 199 199 196 196 197 202 210 216 219 225 229 224 214 207 205 207 209 209 208 204 201 205 216 233 256
265 262 261 266 257 223 207 207 210 216 222 228 233 232 225 221 220 221 222 223 221 218 216 214 212 211 214 216 216 215 214 213 212 212 212 213 212 210 211 213 216 219 216 219 224 222 225 219 199 201 205 205 207 207 204 205 206 206 207 207 211 213 212 209 208 210 214 219 224 226 228 229 225 219 217 220 225 227 228 230 232 238 246 253 263
260 257 258 258 245 220 208 209 214 220 223 227 232 230 224 223 223 222 222 221 220 220 217 215 215 214 213 216 217 215 214 213 213 212 213 215 215 214 214 215 219 220 214 215 221 220 224 222 202 198 198 199 204 205 205 207 207 209 215 218 221 223 222 219 217 217 218 222 227 229 230 233 233 230 228 229 234 238 239 242 246 250 254 260 266
258 250 251 247 226 212 211 213 216 222 225 228 232 229 225 225 225 224 223 220 219 220 217 216 219 217 215 217 216 213 212 212 212 212 212 215 217 218 219 218 221 223 215 213 218 220 222 220 211 206 204 202 204 205 204 205 206 210 217 223 227 228 227 225 224 225 225 226 230 233 234 235 237 238 237 237 240 244 247 249 252 255 258 262 267
259 244 236 229 217 212 216 217 218 223 225 226 229 229 226 224 223 224 224 222 220 219 218 219 220 219 217 217 216 214 213 213 214 212 212 214 216 219 222 221 223 225 219 214 216 220 221 220 216 212 211 211 212 210 208 207 207 211 215 219 224 228 228 227 229 229 229 232 234 236 237 238 240 242 242 243 245 248 252 255 256 259 262 265 268
256 242 228 220 215 215 218 220 222 226 227 225 227 229 226 220 218 221 224 222 219 218 217 218 220 220 219 217 216 216 215 216 216 215 214 214 214 218 222 222 222 224 223 219 220 223 221 220 220 216 213 216 218 217 216 215 215 216 218 220 223 227 229 229 231 231 230 233 235 236 238 239 241 244 246 249 251 254 258 261 263 265 266 268 270
249 241 230 222 219 219 220 222 224 226 227 228 229 230 228 220 214 217 222 220 216 216 217 219 222 223 221 219 218 218 217 217 217 217 218 217 215 217 220 220 221 223 224 224 225 228 224 222 223 221 217 218 220 222 221 223 225 225 225 227 227 230 233 235 237 237 234 235 237 238 239 241 244 246 249 252 254 258 261 264 266 269 270 272 274
247 241 234 228 223 221 222 224 224 224 226 230 232 233 231 224 216 216 220 219 216 217 220 221 223 224 223 222 221 220 219 220 219 218 218 218 218 218 219 219 221 224 227 227 228 230 229 227 226 224 221 221 222 224 223 224 229 231 231 233 233 234 236 238 241 242 239 237 239 240 241 243 247 251 254 257 260 263 267 271 274 276 277 277 278
245 242 237 232 227 223 223 225 224 223 225 227 229 232 230 225 219 216 216 218 219 220 221 222 221 221 222 222 222 223 223 224 223 219 218 221 222 221 220 221 222 224 227 228 229 231 232 233 232 227 223 225 226 225 223 223 228 232 232 233 235 237 238 239 240 241 239 237 238 242 243 245 251 258 262 265 267 271 274 275 276 277 277 278 278
244 245 238 232 230 227 225 225 225 224 226 227 226 227 226 224 221 216 215 218 220 222 222 223 223 224 223 223 224 226 225 225 224 222 222 225 228 227 225 223 223 225 226 227 230 232 233 237 238 231 225 227 229 226 225 225 230 236 236 234 236 240 241 240 240 238 236 236 239 243 247 249 254 261 265 269 271 273 272 272 273 274 275 276 277
245 249 242 232 231 230 227 226 225 223 226 227 225 225 227 227 224 219 217 218 220 222 223 224 225 226 225 224 224 224 223 222 223 223 222 224 226 228 228 225 225 226 227 229 232 235 235 237 239 235 228 228 230 229 229 232 238 244 243 234 231 237 240 242 244 242 238 241 245 248 253 255 258 262 266 268 269 270 271 273 275 275 276 277 279
246 251 247 237 232 229 226 225 223 222 224 225 223 223 226 228 226 222 221 222 221 222 224 224 223 223 223 221 219 218 218 218 220 220 218 218 222 225 225 225 228 229 229 231 234 237 238 238 241 240 232 229 231 232 236 241 243 245 243 233 227 233 239 241 245 245 242 244 251 256 260 260 258 260 263 266 270 273 273 275 276 278 280 281 283
248 253 251 243 234 227 223 222 221 222 222 221 221 223 224 225 225 222 221 224 224 223 223 225 224 222 221 220 217 216 214 214 217 218 216 216 218 221 222 225 229 229 230 233 235 238 238 237 239 241 235 232 234 235 236 242 246 245 241 233 227 230 236 239 244 248 247 247 250 255 261 261 261 264 267 269 271 271 272 276 281 283 283 284 285
259 260 257 247 235 226 222 222 221 222 221 220 222 224 224 225 224 221 220 223 225 224 223 225 225 221 218 218 220 217 212 211 215 216 214 215 218 221 224 226 229 230 231 232 234 236 236 236 238 239 238 237 238 236 235 240 248 248 242 235 230 231 236 240 244 248 251 251 252 256 261 265 268 270 271 274 277 277 278 281 283 282 282 284 285
269 268 265 254 237 228 227 227 225 223 221 220 223 224 223 224 223 221 221 221 220 220 220 223 225 223 219 219 220 216 208 207 211 211 212 218 222 224 225 225 226 229 230 229 229 232 233 235 237 240 239 236 233 232 235 242 249 248 242 238 235 235 239 242 245 249 253 256 258 260 264 268 271 272 273 279 282 282 282 283 282 282 283 284 285
272 265 260 253 239 231 232 232 227 222 221 221 224 224 222 220 220 221 222 220 217 216 218 221 223 223 222 222 223 218 208 204 207 210 215 219 220 220 220 220 221 223 227 228 229 232 234 234 235 238 237 232 230 233 239 244 247 245 241 238 236 237 240 243 246 248 250 252 256 263 269 273 276 279 281 280 279 279 281 283 283 284 284 284 285
272 255 245 244 238 231 232 233 227 221 221 222 221 220 218 216 216 219 221 220 218 218 219 220 222 223 223 222 220 214 205 203 206 209 210 208 209 211 211 210 211 215 220 225 228 232 234 234 234 235 233 230 231 237 242 243 242 240 235 232 230 230 231 231 234 241 253 265 271 276 278 275 276 280 281 280 279 280 280 280 281 282 283 285 286
282 251 235 235 235 231 231 234 232 226 223 221 217 213 213 213 215 217 219 220 221 220 219 220 222 221 220 220 217 208 199 201 206 206 201 195 194 198 196 194 199 205 209 214 220 223 225 228 229 229 230 231 232 234 236 234 231 226 218 212 213 215 214 222 245 263 276 281 280 279 276 271 272 274 275 277 280 280 278 279 282 284 286 286 287
320 278 247 236 237 234 231 233 236 233 230 226 219 213 212 214 217 219 220 222 224 223 221 220 219 218 217 220 220 213 203 202 205 205 200 193 190 192 192 191 195 201 203 206 213 212 205 203 206 209 214 217 217 219 219 216 217 220 217 215 223 233 239 248 260 270 275 273 271 270 269 268 271 273 275 279 282 283 284 285 286 287 287 288 291
350 321 290 269 256 242 231 228 231 235 234 231 225 217 214 216 220 222 224 225 226 224 221 218 215 214 215 217 219 218 211 205 205 204 200 196 194 195 196 195 196 200 202 202 207 206 192 181 180 186 191 194 199 209 212 212 221 236 243 239 240 252 261 260 255 252 254 259 264 266 266 269 274 278 282 287 290 291 292 292 290 290 291 294 296